Погода в Краславе

Латвия     55°53′56″N   27°10′15″E
темп.,
°C
ветер,
м/с
пор.,
м/с
влажн.,
%
обл.,
%
осадки,
мм/ч
давл.,
гПа
погр.,
м
5 марта, пт
пт523:00−3ссз27690 0.0 1010450
02:00−3з37690 0.0 1011403
05:00−3зсз498641 0.1 10111000
08:00−3зсз597864 0.2 1012946
11:00−2ссз5845100 0.2 10131659
14:00−1ссз5103560 0.2 10152247
17:00−2ссз364094 0.0 10161642
20:00−3св115191 0.0 101822
6 марта, сб
сб623:00−3св125695 0.0 1019599
02:00−4ссз247496 0.1 1020265
05:00−6сз247324 0.0 1021162
08:00−5сз376912 0.0 1022516
11:00−2зсз465213 0.0 10221124
14:000з58437 0.0 10201468
17:00−1зюз51253100 0.0 10171423
20:00−1зюз71464100 0.0 10141276
7 марта, вс
вс723:00−1зюз71761100 0.0 10101365
02:00−1зюз81687100 0.1 10051236
05:00−1сз71386100 3.4 10021154
08:00−4сз6134686 3.8 10051576
11:00−2зсз612427 0.0 10062283
14:00−1з7115354 0.6 10041780
17:00−2з61359100 0.6 10011923
20:00−4зсз71482100 1.0 10011602
8 марта, пн
пн823:00−6сз7137099 0.1 10041299
02:00−6сз61176100 0.1 10071352
05:00−8ссз386937 0.0 1008827
08:00−8ссз376619 0.0 1010656
11:00−5сз465719 0.0 10111271
14:00−4ссз466860 0.1 10131027
17:00−6ссз4762100 0.1 10141226
20:00−8с5870100 0.1 10181187
9 марта, вт
вт923:00−9с4972100 0.0 1020875
02:00−10с387360 0.0 1022534
05:00−11ссз27790 0.0 1024406
08:00−10ссз36780 0.0 1025386
11:00−5ссз35570 0.0 1026685
14:00−3сз34490 0.0 1026936
17:00−3зсз25520 0.0 1026722
20:00−6з39714 0.0 1027316